Regional Weather Roundup
Issued by NWS Boston, MA

Current Version | Previous Version | Text Only | Print | Product List | Glossary Off
Versions: 1 2 3 4 5 6 7 8 9 10 11 12 13 14 15 16 17 18 19 20 21 22 23 24 25 26 27

000
ASUS41 KBOX 221310
RWRBOX

REGIONAL WEATHER ROUNDUP
NATIONAL WEATHER SERVICE TAUNTON MA
900 AM EDT THU JUN 22 2017

NOTE:  "FAIR" INDICATES FEW OR NO CLOUDS BELOW 12,000 FEET WITH NO
SIGNIFICANT WEATHER AND/OR OBSTRUCTIONS TO VISIBILITY.

MAZALL-221400-
EASTERN MASSACHUSETTS

CITY           SKY/WX    TMP DP  RH WIND       PRES   REMARKS
BOSTON         MOSUNNY   73  53  49 W8        29.99R
BEVERLY        SUNNY     71  57  61 W8        29.98R
LAWRENCE       SUNNY     73  56  54 W8        30.00S
BEDFORD        SUNNY     72  53  51 NW6       29.98S
BLUE HILL        N/A     70  54  56 NW6       30.00R
NORWOOD        SUNNY     73  56  54 VRB5      29.99S
MARSHFIELD     SUNNY     73  55  53 VRB5      29.98F
PLYMOUTH       SUNNY     72  54  53 W5        30.00R
TAUNTON        SUNNY     74  54  49 VRB3      29.99S
NEW BEDFORD    SUNNY     72  54  53 NW5       29.99R
$$

MAZALL-221400-
CAPE COD AND THE ISLANDS

CITY           SKY/WX    TMP DP  RH WIND       PRES   REMARKS
FALMOUTH       SUNNY     72  55  56 NW6       30.01R
HYANNIS        SUNNY     73  54  51 NW9       29.99R
CHATHAM        SUNNY     73  55  53 VRB3      30.00R
PROVINCETOWN   SUNNY     67  57  70 W6        30.00R
NANTUCKET      SUNNY     72  55  55 NW10      30.00R
MARTHAS VNYRD  SUNNY     73  56  54 W6        30.00R
$$

MAZALL-221400-
CENTRAL AND WESTERN MASSACHUSETTS

CITY           SKY/WX    TMP DP  RH WIND       PRES   REMARKS
WORCESTER      SUNNY     67  51  56 W12       30.02S
FITCHBURG      SUNNY     73  54  51 NW7       30.01R
ORANGE         SUNNY     69  56  62 CALM      30.01S
SPRINGFIELD    MOSUNNY   68  54  59 CALM      30.00S
WESTFIELD      NOT AVBL
NORTH ADAMS    SUNNY     65  54  67 CALM      30.03S
PITTSFIELD     SUNNY     65  52  62 VRB6      30.03S
$$

RIZALL-221400-
RHODE ISLAND

CITY           SKY/WX    TMP DP  RH WIND       PRES   REMARKS
PROVIDENCE     MOSUNNY   72  56  57 CALM      30.01R
NEWPORT        SUNNY     70  56  61 CALM      30.01R
BLOCK ISLAND   SUNNY     70  55  59 NW8       30.02S
WESTERLY       SUNNY     74  54  49 VRB3      30.02S
$$

CTZALL-221400-
CONNECTICUT

CITY           SKY/WX    TMP DP  RH WIND       PRES   REMARKS
BRADLEY INTL   MOSUNNY   72  56  57 VRB3      30.02S
HARTFORD       SUNNY     72  56  57 W3        30.02S
BRIDGEPORT     SUNNY     72  57  59 SW6       30.04R
DANBURY        SUNNY     72  56  57 W3        30.05S
GROTON         SUNNY     74  54  49 N6        30.01R
NEW HAVEN      MOSUNNY   73  55  53 MISG      30.04R
CHESTER        FAIR      72  52  49 NW7       30.04R
MERIDEN        SUNNY     72  55  55 NW7       30.03R
WILLIMANTIC    SUNNY     73  55  53 W5        30.02S
OXFORD         MOSUNNY   70  54  56 N5        30.06R
$$

MEZ002-015-021-024-NHZ003-005-008-011-012-014-VTZ005-008-221400-
NORTHERN NEW ENGLAND

CITY           SKY/WX    TMP DP  RH WIND       PRES   REMARKS
PORTLAND ME    MOSUNNY   71  52  50 VRB5      29.94R
BANGOR ME      MOSUNNY   68  52  56 SW8       29.89F
CONCORD NH     SUNNY     70  55  59 VRB3      29.98S
MANCHESTER NH  MOSUNNY   72  52  49 W6        29.97S
NASHUA NH      SUNNY     70  55  59 W7        29.99S
PORTSMOUTH NH  SUNNY     70  55  58 SW9       29.96R
JAFFREY NH     SUNNY     66  55  67 S7        30.02R
KEENE NH       SUNNY     65  55  70 S5        30.01F
BURLINGTON VT  MOSUNNY   69  56  62 S9        29.96S
MT. WASHINGTON FOG       41  41 100 W37         N/A  VSB 1/8 WCI  29
$$

NYZ052-076-221400-
EASTERN NEW YORK

CITY           SKY/WX    TMP DP  RH WIND       PRES   REMARKS
ALBANY         MOSUNNY   68  53  58 S3        30.02F
NEW YORK CITY  PTSUNNY   74  55  51 NE6       30.02S
$$

ANZALL-221400-
MARINE OBSERVATIONS

STATION/POSITION TIME  TEMP    WIND        PRES    VSBY  WAVE
                       AIR SEA DIR/SP/G                  HT/PER
                 (UTC) (F)     (DEG/KT/KT) (MB)    (MI)  (FT/S)
BOSTON BUOY      1250   61 58  240/  8/  8 1015.1R         1/ 5
BUZZARDS BAY     1200   66     290/  9/  9 1016.1R
NANTUCKET SOUND  1250      65              1015.7R         1
MASS BAY-STELLWA 1204   60 59  250/  8/  8 1014.3R         2/ 7
ISLE OF SHOALS   1200   62     270/  9/ 10 1014.3R
S OF BLOCK IS    1225      62                N/A           4/ 7
$$

......................KEY.........................
  SKY/WX - SKY CONDITION/PRESENT WEATHER
  TMP    - TEMPERATURE IN FAHRENHEIT
  DWPT   - DEWPOINT IN FAHRENHEIT
  RH     - RELATIVE HUMIDITY IN PERCENT
  WIND   - DIRECTION AND SPEED IN MPH
  PRES   - MEAN SEA LEVEL PRESSURE IN INCHES OF HG
  WCI    - WIND CHILL INDEX
  VSB    - VISIBILITY IN MILES
  HX     - HEAT INDEX
  TC     - TEMPERATURE IN CELSIUS
  VRB    - VARIABLE WIND DIRECTION
  N/A    - NOT AVAILABLE




USA.gov is the U.S. government's official web portal to all federal, state and local government web resources and services.